Flag for U.S.A. Weather past 2 weeks in Casper, Wyoming, U.S.A.

Now
43 °F

Overcast.


Feels Like: 40 °F
Forecast: 31 / 63 °F
Wind: 5 mph from Northeast

Location: Natrona County International Airport

Current Time: Apr 27, 2015 at 10:55:30 PM

Latest Report: Apr 27, 2015 at 9:53 PM


Visibility: 10 mi

Pressure: 30.35 "Hg

Humidity: 76%

Dew point: 36 °F

Location of CasperLocation

Historic Weather in Casper — Graph

°F

Casper temperature yesterday

Maximum temperature yesterday: 40 °F (at 12:53 AM)
Minimum temperature yesterday: 35 °F (at 7:00 AM)
Average temperature yesterday: 37 °F

Past Weeks' High & Low Weather Summary

 TemperatureHumidityPressure
High76 °F (Apr 14, 1:53 PM)97% (Apr 17, 4:53 PM)30.36 "Hg (Apr 17, 4:53 PM)
Low25 °F (Apr 13, 1:53 AM)6% (Apr 14, 1:53 PM)29.43 "Hg (Apr 14, 8:53 PM)
Average44 °F63%29.93 "Hg
* Reported Apr 12 8:53 PM — Apr 27 8:53 PM, Casper, Weather by CustomWeather, © 2015

Note: Actual official high and low records may vary slightly from our data, if they occured in-between our weather recording intervals... More about our weather records

Advertising

Casper weather history for previous 24 hours

 ConditionsComfort  
Time TempWeatherWind HumidityBarometerVisibility
8:53 PM
Mon, Apr 27
43 °FOvercast.6 mph76%30.34 "Hg10 mi
7:53 PM44 °FOvercast.5 mph71%30.33 "Hg10 mi
6:53 PM44 °FOvercast.7 mph71%30.31 "Hg10 mi
5:53 PM45 °FOvercast.5 mph68%30.31 "Hg10 mi
4:53 PM46 °FOvercast.6 mph66%30.29 "Hg10 mi
3:53 PM44 °FOvercast.7 mph71%30.32 "Hg10 mi
2:53 PM42 °FOvercast.5 mph73%30.33 "Hg10 mi
1:53 PM42 °FOvercast.6 mph73%30.34 "Hg10 mi
12:53 PM41 °FOvercast.7 mph80%30.34 "Hg10 mi
11:53 AM38 °FOvercast.9 mph83%30.36 "Hg10 mi
10:53 AM37 °FMostly cloudy.8 mph86%30.36 "Hg10 mi
9:53 AM36 °FMostly cloudy.8 mph89%30.36 "Hg10 mi
8:53 AM34 °FOvercast.8 mph92%30.35 "Hg10 mi
7:53 AM34 °FFog.6 mph92%30.32 "Hg4 mi
6:53 AM33 °FMostly cloudy.6 mph92%30.31 "Hg7 mi
5:53 AM33 °FLight snow. Fog.5 mph92%30.27 "Hg5 mi
4:53 AM33 °FLight snow. Fog.6 mph92%30.25 "Hg3 mi
3:53 AM33 °FLight snow. Fog.6 mph92%30.24 "Hg4 mi
2:53 AM33 °FLight snow. Fog.6 mph92%30.23 "Hg4 mi
1:53 AM34 °FLight rain. Low clouds.7 mph92%30.21 "Hg10 mi
12:55 AM33 °FLight snow. Fog.6 mph96%30.18 "Hg2 mi
11:53 PM
Sun, Apr 26
35 °FLight rain. Fog.6 mph96%30.19 "Hg2 mi
11:01 PM36 °FLight rain. Fog.6 mph92%30.17 "Hg2 mi
Weather by CustomWeather, © 2015

See weather overviewHow to use our weather pages